User: anonymous   Login
Location: Mauna Kea VIS
(19.7591°N, 155.4561°W)
Time: 03:50:17
(UTC-10:00)
Language:

Cosmos 1624 Rocket - Orbit

View from above orbital plane
View from above orbital plane
View from above satellite
View from above satellite

Ground track
Ground track

The orbit data is extracted from the following two-line orbital elements,

1 15483U 85006B   16039.52859824  .00000135  00000-0  55401-4 0  9990
2 15483  74.0452 183.0151 0019942 285.2209 140.3549 14.36098224625544
Epoch (UTC): 08 February 2016 12:41:10
Eccentricity: 0.0019942
inclination: 74.0452°
perigee height: 757 km
apogee height: 785 km
right ascension of ascending node: 183.0151°
argument of perigee: 285.2209°
revolutions per day: 14.36098224
mean anomaly at epoch: 140.3549°
orbit number at epoch: 62554

The dashed part of the orbit path shows where the satellite is in the earth's shadow,  

DLR